Weather History for Rome, GA

Change the Weather History Date:

Thursday, January 2, 2014

  Actual Average Record
Temperature  
Mean Temperature 38 °F 41 °F  
Max Temperature 51 °F 51 °F 70 °F (2005)
Min Temperature 25 °F 30 °F 19 °F (2008)
Degree Days  
Heating Degree Days 27 24  
Month to date heating degree days 53 48  
Since 1 July heating degree days 1318 1348  
Moisture  
Dew Point 39 °F    
Average Humidity 78    
Maximum Humidity 100    
Minimum Humidity 55    
Precipitation  
Precipitation 0.26 in 0.09 in 0.84 in (2015)
Month to date precipitation 0.26 0.19  
Year to date precipitation 0.26 0.19  
Snow  
Snow 0.00 in - - ()
Month to date snowfall 0.0  
Since 1 July snowfall 0.0  
Snow Depth 0.00 in    
Sea Level Pressure  
Sea Level Pressure 29.95 in    
Wind  
Wind Speed 8 mph (WNW)    
Max Wind Speed 25 mph    
Max Gust Speed 37 mph    
Visibility 6 miles    
Events Rain    
T = Trace of Precipitation, MM = Missing Value Source: NWS Daily Summary

Daily Weather History Graph

Daily Weather History Graph

Search for Another Location

Airport:

Trip Planner

Search our weather history database for the weather conditions in past years. The results will help you decide how hot, cold, wet, or windy it might be!

Date:

Astronomy

Jan. 02, 2014 Rise Set
Actual Time 7:47 AM EST 5:42 PM EST
Civil Twilight 7:19 AM EST 6:10 PM EST
Nautical Twilight 6:48 AM EST 6:41 PM EST
Astronomical Twilight 6:17 AM EST 7:12 PM EST
Moon 8:32 AM EST (1/2) 7:32 PM EST (1/2)
Length of Visible Light 10h 50m
Length of Day
9h 55m
New Moon, 2% of the Moon is Illuminated
Jan 2
New Moon
Jan 7
First Quarter
Jan 15
Full
Jan 24
Last Quarter
Jan 30
New

Hourly Weather History & Observations

Time (EST) Temp. Windchill Dew Point Humidity Pressure Visibility Wind Dir Wind Speed Gust Speed Precip Events Conditions
12:53 AM 43.0 °F - 37.9 °F 82% 30.10 in 10.0 mi Calm Calm - N/A   Overcast
1:53 AM 43.0 °F - 37.9 °F 82% 30.07 in 10.0 mi Calm Calm - N/A   Overcast
2:53 AM 43.0 °F - 37.9 °F 82% 30.05 in 10.0 mi Calm Calm - 0.00 in   Overcast
3:12 AM 42.8 °F - 39.2 °F 87% 30.05 in 10.0 mi Calm Calm - N/A   Overcast
3:53 AM 43.0 °F - 39.9 °F 89% 30.03 in 10.0 mi Calm Calm - N/A   Overcast
4:25 AM 42.8 °F 41.1 °F 41.0 °F 93% 30.00 in 4.0 mi South 3.5 mph - 0.01 in Rain Light Rain
4:43 AM 42.8 °F - 42.8 °F 100% 30.00 in 6.0 mi Calm Calm - 0.01 in Rain Light Rain
4:53 AM 43.0 °F - 42.1 °F 97% 29.99 in 4.0 mi Calm Calm - 0.01 in Rain Light Rain
5:32 AM 42.8 °F - 42.8 °F 100% 29.97 in 4.0 mi Calm Calm - 0.02 in Rain Light Rain
5:53 AM 43.0 °F - 43.0 °F 100% 29.96 in 5.0 mi Calm Calm - 0.02 in   Overcast
6:50 AM 42.8 °F 39.3 °F 42.8 °F 100% 29.93 in 2.5 mi SSE 5.8 mph - 0.01 in Rain Light Rain
6:53 AM 43.0 °F 39.5 °F 43.0 °F 100% 29.93 in 2.5 mi SSE 5.8 mph - 0.01 in Rain Light Rain
7:13 AM 44.6 °F 43.1 °F 44.6 °F 100% 29.92 in 3.0 mi SSE 3.5 mph - 0.01 in Rain Light Rain
7:53 AM 44.1 °F - 44.1 °F 100% 29.92 in 2.5 mi Calm Calm - 0.04 in Rain Light Rain
8:08 AM 44.6 °F 41.4 °F 42.8 °F 93% 29.93 in 3.0 mi NW 5.8 mph - 0.02 in Rain Light Rain
8:16 AM 44.6 °F - 44.6 °F 100% 29.92 in 1.8 mi Calm Calm - 0.05 in Rain Rain
8:53 AM 44.1 °F - 44.1 °F 100% 29.90 in 2.0 mi Calm Calm - 0.09 in Rain Light Rain
9:05 AM 44.6 °F - 44.6 °F 100% 29.90 in 3.0 mi Calm Calm - 0.00 in Rain Light Rain
9:32 AM 44.6 °F - 44.6 °F 100% 29.90 in 1.8 mi Calm Calm - 0.01 in Rain Light Rain
9:44 AM 44.6 °F - 44.6 °F 100% 29.89 in 2.5 mi Calm Calm - 0.01 in Rain Light Rain
9:53 AM 45.0 °F - 45.0 °F 100% 29.88 in 2.0 mi Calm Calm - 0.01 in   Overcast
10:02 AM 46.4 °F - 46.4 °F 100% 29.89 in 1.5 mi Calm Calm - 0.01 in Rain Light Rain
10:38 AM 46.4 °F 44.3 °F 46.4 °F 100% 29.88 in 2.0 mi South 4.6 mph - 0.03 in Rain Light Rain
10:53 AM 46.0 °F 44.8 °F 46.0 °F 100% 29.87 in 2.5 mi South 3.5 mph - 0.04 in Rain Light Rain
11:21 AM 46.4 °F - 46.4 °F 100% 29.87 in 4.0 mi Calm Calm - 0.02 in Rain Light Rain
11:44 AM 46.4 °F - 46.4 °F 100% 29.85 in 2.0 mi Calm Calm - 0.03 in Rain Rain
11:53 AM 46.9 °F - 46.9 °F 100% 29.84 in 5.0 mi Calm Calm - 0.04 in Rain Light Rain
12:16 PM 46.4 °F 44.3 °F 46.4 °F 100% 29.83 in 1.8 mi West 4.6 mph - 0.00 in Rain Light Rain
12:28 PM 46.4 °F - 46.4 °F 100% 29.83 in 3.0 mi Calm Calm - 0.00 in   Overcast
12:38 PM 46.4 °F 44.3 °F 46.4 °F 100% 29.82 in 3.0 mi Variable 4.6 mph - 0.00 in   Overcast
12:53 PM 48.0 °F - 46.9 °F 96% 29.80 in 5.0 mi Variable 3.5 mph - 0.00 in   Overcast
1:11 PM 48.2 °F - 48.2 °F 100% 29.80 in 10.0 mi SW 3.5 mph - N/A   Overcast
1:41 PM 50.0 °F - 48.2 °F 94% 29.80 in 10.0 mi West 9.2 mph - N/A   Overcast
1:53 PM 50.0 °F - 48.0 °F 93% 29.80 in 10.0 mi West 12.7 mph 19.6 mph N/A   Overcast
2:10 PM 50.0 °F - 46.4 °F 87% 29.81 in 10.0 mi NW 18.4 mph 24.2 mph 0.00 in Rain Light Rain
2:26 PM 46.4 °F 39.8 °F 42.8 °F 87% 29.83 in 10.0 mi NW 16.1 mph 31.1 mph 0.00 in   Overcast
2:53 PM 45.0 °F 37.9 °F 41.0 °F 86% 29.86 in 10.0 mi NW 16.1 mph 29.9 mph 0.00 in   Overcast
3:53 PM 42.1 °F 32.1 °F 35.1 °F 76% 29.90 in 10.0 mi NW 25.3 mph 36.8 mph N/A   Overcast
4:53 PM 39.0 °F 28.5 °F 32.0 °F 76% 29.95 in 10.0 mi WNW 23.0 mph 29.9 mph N/A   Mostly Cloudy
5:05 PM 37.4 °F 26.6 °F 30.2 °F 75% 29.96 in 10.0 mi NW 21.9 mph 34.5 mph N/A   Scattered Clouds
5:37 PM 37.4 °F 30.3 °F 30.2 °F 75% 29.98 in 10.0 mi NW 10.4 mph 18.4 mph N/A   Mostly Cloudy
5:53 PM 35.1 °F 25.5 °F 27.0 °F 72% 29.99 in 10.0 mi NW 15.0 mph 26.5 mph N/A   Mostly Cloudy
6:09 PM 33.8 °F 24.3 °F 26.6 °F 75% 30.01 in 10.0 mi NW 13.8 mph 19.6 mph N/A   Scattered Clouds
6:53 PM 30.9 °F 21.7 °F 21.9 °F 69% 30.06 in 10.0 mi NNW 11.5 mph 21.9 mph N/A   Clear
7:53 PM 30.0 °F 16.9 °F 18.0 °F 61% 30.10 in 10.0 mi NW 21.9 mph 29.9 mph N/A   Partly Cloudy
8:53 PM 28.9 °F 17.7 °F 17.1 °F 61% 30.12 in 10.0 mi NW 15.0 mph 32.2 mph N/A   Mostly Cloudy
9:53 PM 27.0 °F 13.5 °F 15.1 °F 61% 30.18 in 10.0 mi NNW 19.6 mph 27.6 mph N/A   Overcast
10:53 PM 26.1 °F 16.2 °F 12.9 °F 58% 30.21 in 10.0 mi NW 10.4 mph 21.9 mph N/A   Overcast
11:53 PM 25.0 °F 13.1 °F 14.0 °F 63% 30.22 in 10.0 mi NW 13.8 mph 19.6 mph N/A   Overcast